Location: Caltech
(34.1382°N, 118.1253°W)
Time: 17:16:31
(UTC-07:00)

OPAL - Visible Passes

Search period start: 28 August 2015 00:00
Search period end: 07 September 2015 00:00
Orbit: 743 x 796 km, 100.2° (Epoch: 28 August)

Date Brightness Start Highest point End Pass type
(mag) Time Alt. Az. Time Alt. Az. Time Alt. Az.
28 Aug 9.5 22:32:15 10° N 22:34:08 23° N 22:34:08 23° N visible
29 Aug 9.6 21:57:00 10° NNE 21:58:04 16° NNE 21:58:04 16° NNE visible
29 Aug 10.3 23:37:11 10° NNW 23:38:21 14° NW 23:38:21 14° NW visible
30 Aug 9.9 23:00:42 10° N 23:02:16 19° NNW 23:02:16 19° NNW visible
31 Aug 9.7 22:25:01 10° NNE 22:26:13 18° NNE 22:26:13 18° NNE visible
01 Sep 10.0 21:49:56 10° NNE 21:50:09 11° NNE 21:50:09 11° NNE visible
01 Sep 10.3 23:29:33 10° NNW 23:30:26 14° NNW 23:30:26 14° NNW visible
02 Sep 10.0 22:53:20 10° N 22:54:22 16° N 22:54:22 16° N visible
03 Sep 10.0 22:17:48 10° NNE 22:18:18 13° NNE 22:18:18 13° NNE visible
04 Sep 10.4 23:22:01 10° NNW 23:22:31 12° NNW 23:22:31 12° NNW visible
05 Sep 10.2 22:46:01 10° N 22:46:28 12° N 22:46:28 12° N visible
